Terug naar catalogus

CZ-6A DEB

ActiefSSO
NORAD 54480·DEBRIS·🇨🇳 China

Gelanceerd Nov 11, 2022 vanaf Taiyuan Satellite Launch Center

Loading…

Volgende Passages (komende 24 uur)

TLE

VersSource: Space-Track

Epoch: Sep 14, 2026, 19:50 UTC

1 54480U 22151HG  26257.82654413  .00000318  00000-0  10936-3 0  9991
2 54480  98.6048 293.6023 0130288 106.6010 254.9531 14.37986374201193

Volg CZ-6A DEB in realtime met AllMySat

Download on the App Store